Location: Czekanka
(50.4925°N, 19.2643°E)
Time: 11:55:16
(UTC+00:00)

Cosmos 2263 Rocket - Pass Details

Date: 15 June 2024
Orbit: 824 x 846 km, 71.0° (Epoch: 15 July)

Event Time Altitude Azimuth Distance (km) Brightness Sun altitude
Exits shadow 00:58:52 12° 230° (SW) 2,307 3.9 -10.4°
Maximum altitude 01:03:57 52° 306° (NW) 1,020 2.7 -9.9°
Drops below altitude 10° 01:09:24 10° 23° (NNE) 2,436 6.2 -9.5°
Sets 01:11:55 0° 28° (NNE) 3,372 7.6 -9.2°
